Location: Izdebno
(52.6670°N, 16.2170°E)
Time: 11:14:58
(UTC+01:00)

Transit 2A - Pass Details

Date: 29 January 2023
Orbit: 591 x 964 km, 66.7° (Epoch: 21 March)

Event Time Altitude Azimuth Distance (km) Brightness Sun altitude
Rises 20:17:24 0° 254° (WSW) 3,076 9.9 -33.5°
Reaches altitude 10° 20:19:51 10° 264° (W) 2,219 9.1 -33.9°
Enters shadow 20:23:52 33° 315° (NW) 1,289 7.5 -34.4°
Maximum altitude 20:24:27 34° 329° (NNW) 1,277 - -34.5°
Drops below altitude 10° 20:29:33 10° 33° (NNE) 2,458 - -35.3°
Sets 20:32:24 0° 43° (NE) 3,459 - -35.7°
